Meteo Giornale » Osservazioni meteo Russia » Cheboksary
ore: 00:30 - Osservazioni Meteo Cheboksary
Lat. 56° 5' N Lon. 47° 21' E Alt. 170 metri s.l.m.
13 °C
Sereno
Temp. 24 Ore
13 °C
22 °C
Sud
10.8 Km/h
Dew point 13 °C
Umidità 100 %
Visibilità 10 Km
Il sole sorge alle ore 04:56
Il sole tramonta alle ore 18:43
| Data e Ora | Cielo e Fenomeni | T °C | DP °C | Um. % | Pres. hPa | Vis. km | Vento km/h | |
|---|---|---|---|---|---|---|---|---|
| Oggi h: 00:30 | Sereno | 13 | 13 | 100 | 1018 | 10 | S 10.8 | |
| Oggi h: 00:00 | Sereno | 13 | 13 | 100 | 1018 | 10 | S 10.8 | |
| Ieri h: 23:30 | Sereno | 13 | 13 | 100 | 1018 | 10 | S 10.8 | |
| Ieri h: 23:00 | Sereno | 13 | 13 | 100 | 1018 | 10 | N 7.2 | |
| Ieri h: 22:30 | Sereno | 14 | 14 | 100 | 1018 | 10 | S 10.8 | |
| Ieri h: 22:00 | Sereno | 14 | 14 | 100 | 1018 | 10 | S 10.8 | |
| Ieri h: 21:30 | Sereno | 14 | 14 | 100 | 1018 | 10 | S 10.8 | |
| Ieri h: 21:00 | Sereno | 15 | 14 | 93 | 1018 | 10 | S 10.8 | |
| Ieri h: 20:30 | Sereno | 15 | 14 | 93 | 1018 | 10 | S 10.8 | |
| Ieri h: 20:00 | Sereno | 16 | 14 | 87 | 1018 | 10 | S/SE 10.8 | |
| Ieri h: 19:30 | Sereno | 17 | 14 | 82 | 1018 | 10 | N 7.2 | |
| Ieri h: 19:00 | Poco Nuvoloso | 17 | 14 | 82 | 1018 | 10 | N 7.2 | |
| Ieri h: 18:30 | Poco Nuvoloso | 18 | 14 | 77 | 1018 | 10 | N 7.2 | |
| Ieri h: 18:00 | Poco Nuvoloso | 20 | 14 | 68 | 1018 | 10 | N 7.2 | |
| Ieri h: 17:30 | Poco Nuvoloso | 20 | 14 | 68 | 1018 | 10 | N 3.6 | |
| Ieri h: 17:00 | Poco Nuvoloso | 21 | 14 | 64 | 1018 | 10 | N 7.2 | |
| Ieri h: 16:30 | Poco Nuvoloso | 22 | 14 | 60 | 1018 | 10 | N 3.6 | |
| Ieri h: 16:00 | Nuvoloso | 21 | 13 | 60 | 1018 | 10 | N 7.2 | |
| Ieri h: 15:30 | Nuvoloso | 21 | 14 | 64 | 1018 | 10 | N 7.2 | |
| Ieri h: 15:00 | Nuvoloso | 21 | 14 | 64 | 1018 | 10 | N 7.2 | |
| Ieri h: 14:30 | Nuvoloso | 20 | 14 | 68 | 1019 | 10 | N 7.2 | |
| Ieri h: 14:00 | Nuvoloso | 21 | 14 | 64 | 1019 | 10 | N 7.2 | |
| Ieri h: 13:30 | Nuvoloso | 21 | 14 | 64 | 1019 | 10 | NO 10.8 | |
| Ieri h: 13:00 | Molto Nuvoloso | 20 | 14 | 68 | 1019 | 10 | O/NO 10.8 | |
| Ieri h: 12:48 | Nuvoloso | 21 | 14 | 64 | 1019 | 10 | O/NO 10.8 | |
| Ieri h: 12:30 | Nuvoloso | 19 | 14 | 72 | 1019 | 10 | N/NO 10.8 | |
| Ieri h: 12:00 | Nuvoloso | 20 | 14 | 68 | 1019 | 10 | NO 10.8 | |
| Ieri h: 11:30 | Molto Nuvoloso | 19 | 14 | 72 | 1019 | 10 | N/NO 10.8 | |
| Ieri h: 11:00 | Molto Nuvoloso | 18 | 15 | 82 | 1019 | 10 | N 10.8 | |
| Ieri h: 10:30 | Molto Nuvoloso | 18 | 15 | 82 | 1019 | 10 | N 7.2 | |
| Ieri h: 10:00 | Molto Nuvoloso | 18 | 15 | 82 | 1019 | 10 | O 10.8 | |
| Ieri h: 09:30 | Molto Nuvoloso | 17 | 15 | 88 | 1018 | 10 | N 7.2 | |
| Ieri h: 09:00 | Molto Nuvoloso | 17 | 15 | 88 | 1018 | 10 | N 7.2 | |
| Ieri h: 08:30 | Molto Nuvoloso | 16 | 15 | 93 | 1018 | 10 | N 10.8 | |
| Ieri h: 08:00 | Molto Nuvoloso | 16 | 15 | 93 | 1018 | 10 | NO 10.8 | |
| Ieri h: 07:30 | Molto Nuvoloso | 15 | 14 | 93 | 1018 | 10 | N 7.2 | |
| Ieri h: 07:00 | Molto Nuvoloso | 15 | 15 | 100 | 1018 | 10 | N 7.2 | |
| Ieri h: 06:30 | Molto Nuvoloso | 14 | 14 | 100 | 1018 | 10 | N 7.2 | |
| Ieri h: 06:00 | Molto Nuvoloso | 15 | 15 | 100 | 1018 | 10 | N 7.2 | |
| Ieri h: 05:30 | Coperto | 14 | 14 | 100 | 1018 | 10 | N 7.2 | |
| Ieri h: 05:00 | Coperto | 14 | 14 | 100 | 1018 | 10 | N 7.2 | |
| Ieri h: 04:30 | Coperto | 14 | 14 | 100 | 1018 | 10 | N 7.2 | |
| Ieri h: 04:00 | Coperto | 14 | 14 | 100 | 1018 | 10 | NO 10.8 | |
| Ieri h: 03:30 | Coperto | 14 | 14 | 100 | 1018 | 10 | N 3.6 | |
| Ieri h: 03:00 | Coperto | 14 | 14 | 100 | 1018 | 10 | N 7.2 | |
| Ieri h: 02:30 | Molto Nuvoloso | 14 | 14 | 100 | 1018 | 10 | N 7.2 | |
| Ieri h: 02:00 | Molto Nuvoloso | 14 | 14 | 100 | 1018 | 10 | N 7.2 | |



